DW1779 Weather Reports


time (UTC)temp
C
wind
direction
speed
KPH
gust
KPH
rain 1hr
cm
rain 24hr
cm
rain mn
cm
humidity
%
barometer
mb
20260510130648 15 29 8.0 22.5 0.00 0.03 0.00 75 1017.9
20260510130050 15 344 6.4 20.9 0.00 0.03 0.00 79 1017.8
20260510125550 15 19 6.4 16.1 0.00 0.03 0.00 80 1017.8
20260510125047 15 323 6.4 14.5 0.00 0.03 0.00 82 1017.7
20260510124550 15 360 3.2 14.5 0.00 0.03 0.00 83 1017.7
20260510124047 15 315 3.2 14.5 0.00 0.03 0.00 85 1017.6
20260510123548 15 355 6.4 14.5 0.00 0.03 0.00 84 1017.7
20260510123047 15 349 4.8 16.1 0.00 0.03 0.00 85 1017.8
20260510122545 15 67 6.4 17.7 0.00 0.03 0.00 86 1017.8
20260510122044 15 15 8.0 17.7 0.00 0.03 0.00 87 1017.7
20260510121547 15 26 3.2 14.5 0.00 0.03 0.00 87 1017.7
20260510121042 15 355 4.8 16.1 0.00 0.03 0.00 87 1017.6
20260510120514 15 13 3.2 9.7 0.00 0.03 0.00 87 1017.4
20260510120007 14 24 3.2 8.0 0.00 0.03 0.00 87 1017.3
20260510115507 14 67 3.2 14.5 0.00 0.03 0.00 87 1017.1
20260510115008 14 336 1.6 14.5 0.00 0.03 0.00 88 1016.9
20260510114503 13 355 1.6 6.4 0.00 0.03 0.00 90 1016.8
20260510114002 13 360 1.6 6.4 0.00 0.03 0.00 92 1016.5
20260510113600 13 5 0.0 3.2 0.00 0.03 0.00 92 1016.3
20260510113100 13 28 0.0 3.2 0.00 0.03 0.00 93 1016.3
20260510112558 13 333 0.0 1.6 0.00 0.03 0.00 92 1016.2
20260510112057 13 333 0.0 1.6 0.00 0.03 0.00 92 1016.1
20260510111556 13 333 0.0 3.2 0.00 0.03 0.00 91 1015.9
20260510111057 14 333 0.0 3.2 0.00 0.03 0.00 91 1015.8
20260510110655 14 350 0.0 3.2 0.00 0.03 0.00 91 1015.9
20260510110101 14 351 0.0 3.2 0.00 0.03 0.00 91 1015.9
20260510105558 14 342 0.0 3.2 0.00 0.03 0.00 91 1015.8
20260510105100 14 323 0.0 3.2 0.00 0.03 0.00 91 1015.8
20260510104610 14 317 1.6 3.2 0.00 0.03 0.00 91 1015.7
20260510104058 14 317 0.0 1.6 0.00 0.03 0.00 91 1015.5
20260510103556 14 317 0.0 0.0 0.00 0.03 0.00 91 1015.6
20260510103055 14 317 0.0 0.0 0.00 0.03 0.00 90 1015.5
20260510102555 14 317 0.0 1.6 0.00 0.03 0.00 90 1015.4
20260510102053 15 317 0.0 3.2 0.00 0.03 0.00 89 1015.5
20260510101555 15 317 0.0 3.2 0.00 0.03 0.00 88 1015.4
20260510101052 15 355 1.6 3.2 0.00 0.03 0.00 88 1015.2
20260510100652 15 63 0.0 3.2 0.00 0.03 0.00 88 1015.0
20260510100100 15 355 0.0 11.3 0.00 0.03 0.00 89 1015.0
20260510095559 14 5 1.6 8.0 0.00 0.03 0.00 89 1014.9
20260510095056 13 9 3.2 12.9 0.00 0.03 0.00 91 1015.0
20260510094559 13 17 3.2 12.9 0.00 0.03 0.00 92 1015.0
20260510094059 13 331 1.6 4.8 0.00 0.03 0.00 93 1015.0
20260510093554 13 316 0.0 3.2 0.00 0.03 0.00 92 1014.9
20260510093057 13 346 0.0 3.2 0.00 0.03 0.00 93 1014.8
20260510092553 13 314 0.0 0.0 0.00 0.03 0.00 92 1014.4
20260510092056 13 314 0.0 0.0 0.00 0.03 0.00 92 1014.2
20260510091552 13 314 0.0 0.0 0.00 0.03 0.00 92 1014.1
20260510091051 13 314 0.0 0.0 0.00 0.03 0.00 92 1014.1
20260510090651 13 314 0.0 0.0 0.00 0.03 0.00 91 1014.1
20260510085555 13 314 0.0 0.0 0.00 0.03 0.00 91 1014.1
20260510085052 13 314 0.0 0.0 0.00 0.03 0.00 90 1014.3
20260510084557 13 314 0.0 0.0 0.00 0.03 0.00 90 1014.2
20260510084051 13 314 0.0 0.0 0.00 0.03 0.00 90 1014.3
20260510083551 13 314 0.0 0.0 0.00 0.03 0.00 89 1014.3
20260510083054 13 314 0.0 0.0 0.00 0.03 0.00 89 1014.2
20260510082548 13 314 0.0 0.0 0.00 0.03 0.00 89 1014.1
20260510082048 13 314 0.0 0.0 0.00 0.03 0.00 89 1014.1
20260510081549 13 314 0.0 0.0 0.00 0.03 0.00 89 1014.1
20260510081048 14 314 0.0 0.0 0.00 0.03 0.00 89 1014.1
20260510080648 14 314 0.0 0.0 0.00 0.03 0.00 89 1014.0
20260510080054 14 314 0.0 0.0 0.00 0.03 0.00 89 1013.8
20260510075553 14 314 0.0 4.8 0.00 0.03 0.00 89 1013.9
20260510075055 14 314 0.0 6.4 0.00 0.03 0.00 87 1013.9
20260510074607 14 301 3.2 6.4 0.00 0.03 0.00 88 1013.9
20260510074049 13 288 1.6 4.8 0.00 0.03 0.00 89 1013.7
20260510073549 13 35 0.0 1.6 0.00 0.03 0.00 89 1013.6
20260510073050 14 35 0.0 1.6 0.00 0.03 0.00 89 1013.6
20260510072548 14 51 0.0 0.0 0.00 0.03 0.00 89 1013.5
20260510072048 14 51 0.0 0.0 0.00 0.03 0.00 88 1013.5
20260510071556 15 51 0.0 0.0 0.00 0.03 0.00 88 1013.4
20260510071049 15 51 0.0 0.0 0.00 0.03 0.00 87 1013.5
20260510070647 15 51 0.0 0.0 0.00 0.03 0.00 87 1013.6
20260510070049 15 51 0.0 1.6 0.00 0.03 0.00 85 1013.6
20260510065548 15 51 0.0 1.6 0.00 0.03 0.00 86 1013.6
20260510065046 15 51 0.0 1.6 0.00 0.03 0.00 86 1013.6
20260510064604 15 51 0.0 3.2 0.00 0.03 0.00 87 1013.7
20260510064045 15 5 0.0 3.2 0.00 0.03 0.00 84 1013.7
20260510063549 15 96 0.0 3.2 0.00 0.03 0.00 83 1013.6
20260510063044 15 130 0.0 3.2 0.00 0.03 0.00 80 1013.5
20260510062544 15 281 0.0 3.2 0.00 0.03 0.00 82 1013.7
20260510062042 15 282 0.0 4.8 0.00 0.03 0.00 82 1013.6
20260510061543 16 282 0.0 4.8 0.00 0.03 0.00 82 1013.6
20260510061041 16 141 0.0 3.2 0.00 0.03 0.00 78 1013.6
20260510060512 16 141 0.0 3.2 0.00 0.03 0.00 79 1013.7
20260510060008 16 134 0.0 4.8 0.00 0.03 0.00 79 1013.7
20260510055506 16 138 0.0 4.8 0.00 0.03 0.00 79 1013.6
20260510055004 17 128 1.6 3.2 0.00 0.03 0.00 77 1013.7
20260510054505 17 171 0.0 3.2 0.00 0.03 0.00 73 1013.8
20260510054002 17 203 1.6 3.2 0.00 0.03 0.00 74 1013.8
20260510053501 17 203 0.0 3.2 0.00 0.03 0.00 73 1013.6
20260510053000 18 240 0.0 3.2 0.00 0.03 0.00 68 1013.6
20260510052501 18 275 0.0 3.2 0.00 0.03 0.00 71 1013.7
20260510052100 17 291 1.6 4.8 0.00 0.03 0.00 70 1013.7
20260510051606 18 283 1.6 8.0 0.00 0.03 0.00 70 1013.6
20260510051058 19 294 3.2 11.3 0.00 0.03 0.00 64 1013.6
20260510050658 19 307 4.8 14.5 0.00 0.03 0.00 63 1013.6
20260510050059 19 308 3.2 19.3 0.00 0.03 0.00 65 1013.5
20260510045554 18 344 6.4 19.3 0.00 0.20 0.03 66 1013.2
20260510045053 18 346 8.0 19.3 0.00 0.20 0.03 69 1013.3
20260510044555 17 326 6.4 14.5 0.00 0.20 0.03 71 1013.1
20260510044052 17 291 1.6 4.8 0.00 0.20 0.03 77 1012.5
20260510043550 17 207 0.0 6.4 0.00 0.20 0.03 76 1012.5
20260510043058 17 198 0.0 6.4 0.00 0.20 0.03 77 1012.5
20260510042549 16 219 0.0 6.4 0.00 0.20 0.03 80 1012.4
20260510042049 15 304 0.0 6.4 0.00 0.20 0.03 85 1012.4
20260510041607 15 200 1.6 8.0 0.00 0.20 0.03 89 1012.3
20260510041053 14 192 3.2 8.0 0.00 0.20 0.03 90 1012.2
20260510040649 14 186 1.6 8.0 0.00 0.20 0.03 90 1012.3
20260510040047 14 207 0.0 0.0 0.00 0.20 0.03 92 1012.3
20260510035547 14 207 0.0 0.0 0.00 1.27 0.03 92 1012.5
20260510035046 13 207 0.0 0.0 0.00 1.27 0.03 93 1012.5
20260510034546 13 207 0.0 1.6 0.00 1.27 0.03 92 1012.4
20260510034049 13 207 0.0 3.2 0.00 1.27 0.03 92 1012.5
20260510033547 13 207 1.6 3.2 0.00 1.27 0.03 92 1012.4
20260510033046 13 207 1.6 3.2 0.00 1.27 0.03 92 1012.2
20260510032548 13 207 0.0 1.6 0.00 1.27 0.03 92 1012.3
20260510032046 13 207 0.0 1.6 0.00 1.27 0.03 92 1012.2
20260510031544 13 207 0.0 3.2 0.00 1.27 0.03 91 1012.2
20260510031045 13 207 0.0 3.2 0.00 1.27 0.03 91 1012.1
20260510030646 13 207 1.6 3.2 0.00 1.27 0.03 91 1012.0
20260510030049 14 207 1.6 3.2 0.00 1.27 0.03 91 1012.1
20260510025544 14 207 0.0 3.2 0.00 1.30 0.03 91 1012.2
20260510025041 14 207 0.0 3.2 0.00 1.30 0.03 91 1012.0
20260510024552 14 207 0.0 3.2 0.00 1.30 0.03 90 1012.0
20260510024045 14 228 0.0 0.0 0.00 1.30 0.03 90 1011.8
20260510023541 14 312 0.0 0.0 0.00 1.30 0.03 89 1011.7
20260510023041 15 312 0.0 0.0 0.00 1.30 0.03 89 1011.8
20260510022546 15 312 0.0 0.0 0.00 1.30 0.03 88 1011.6
20260510022042 15 312 0.0 0.0 0.00 1.30 0.03 87 1011.5
20260510021542 15 312 0.0 0.0 0.00 1.30 0.03 87 1011.3
20260510021040 15 312 0.0 0.0 0.00 1.30 0.03 87 1011.2
20260510020641 15 312 0.0 0.0 0.00 1.30 0.03 87 1011.1
20260510020049 15 312 0.0 0.0 0.00 1.30 0.03 86 1011.0
20260510015541 16 312 0.0 0.0 0.00 1.30 0.03 85 1010.9
20260510015042 16 312 0.0 0.0 0.00 1.30 0.03 85 1010.9
20260510014540 16 312 0.0 0.0 0.00 1.30 0.03 85 1010.9
20260510014039 16 312 0.0 0.0 0.00 1.30 0.03 85 1010.7
20260510013539 16 312 0.0 0.0 0.00 1.30 0.03 84 1010.7
20260510013046 16 312 0.0 0.0 0.00 1.30 0.03 83 1010.7
20260510012543 17 312 0.0 0.0 0.00 1.30 0.03 82 1010.7
20260510012039 17 312 0.0 0.0 0.00 1.30 0.03 81 1010.6
20260510011540 17 312 0.0 0.0 0.00 1.30 0.03 79 1010.6
20260510011038 17 312 0.0 0.0 0.00 1.30 0.03 77 1010.4
20260510010638 18 312 0.0 0.0 0.00 1.30 0.03 77 1010.3
20260510010110 18 312 0.0 0.0 0.00 1.30 0.03 75 1010.3
20260510005557 18 312 0.0 0.0 0.00 1.37 0.03 73 1010.2
20260510005056 19 312 0.0 0.0 0.00 1.37 0.03 72 1010.1
20260510004603 19 312 0.0 1.6 0.00 1.37 0.03 72 1010.1
20260510004056 20 312 0.0 1.6 0.00 1.37 0.03 70 1010.1
20260510003556 20 312 0.0 1.6 0.00 1.37 0.03 70 1010.0
20260510003057 20 312 0.0 1.6 0.00 1.37 0.03 69 1010.0
20260510002558 21 312 0.0 1.6 0.00 1.37 0.03 66 1009.9
20260510002055 21 312 0.0 0.0 0.00 1.37 0.03 63 1009.9
20260510001555 21 312 0.0 0.0 0.00 1.37 0.03 59 1010.0
20260510001057 22 312 0.0 1.6 0.00 1.37 0.03 60 1009.9
20260510000656 22 312 0.0 3.2 0.00 1.37 0.03 56 1009.9
20260510000057 22 294 0.0 4.8 0.00 1.37 0.03 57 1009.9
20260509235551 23 300 0.0 6.4 0.00 1.37 0.03 56 1009.8
20260509235051 23 303 1.6 6.4 0.00 1.37 0.03 55 1009.8
20260509234602 24 294 0.0 4.8 0.00 1.37 0.03 52 1009.8
20260509234053 25 309 1.6 6.4 0.00 1.37 0.03 44 1009.9
20260509233551 25 287 1.6 6.4 0.00 1.37 0.03 41 1009.7
20260509233050 25 300 1.6 14.5 0.00 1.37 0.03 44 1009.8
20260509232550 25 255 8.0 14.5 0.00 1.37 0.03 43 1009.8
20260509232050 25 295 3.2 11.3 0.00 1.37 0.03 43 1009.9
20260509231550 25 295 3.2 8.0 0.00 1.37 0.03 42 1009.9
20260509231049 25 328 3.2 8.0 0.00 1.37 0.03 43 1009.8
20260509230651 25 301 0.0 11.3 0.00 1.37 0.03 47 1009.8
20260509230048 25 298 1.6 11.3 0.00 1.37 0.03 47 1009.8
20260509225548 25 315 4.8 16.1 0.00 1.37 0.03 45 1009.9
20260509225047 25 286 4.8 16.1 0.00 1.37 0.03 43 1009.8
20260509224548 25 268 4.8 9.7 0.00 1.37 0.03 46 1009.7
20260509224049 25 325 3.2 11.3 0.00 1.37 0.03 41 1009.7
20260509223547 25 309 3.2 16.1 0.00 1.37 0.03 43 1009.6
20260509223049 25 286 8.0 16.1 0.00 1.37 0.03 41 1009.7
20260509222546 25 327 3.2 12.9 0.00 1.37 0.03 43 1009.7
20260509222046 25 348 4.8 14.5 0.00 1.37 0.03 42 1009.6
20260509221603 25 325 4.8 14.5 0.00 1.37 0.03 44 1009.7
20260509221046 25 271 3.2 12.9 0.00 1.37 0.03 45 1009.5
20260509220647 25 263 3.2 11.3 0.00 1.37 0.03 44 1009.6
20260509220058 26 334 3.2 11.3 0.00 1.37 0.03 42 1009.6
20260509215646 26 331 1.6 8.0 0.00 1.37 0.03 43 1009.7
20260509215044 26 263 3.2 17.7 0.00 1.37 0.03 40 1009.6
20260509214544 26 296 8.0 17.7 0.00 1.37 0.03 46 1009.6
20260509214044 26 270 4.8 9.7 0.00 1.37 0.03 46 1009.6
20260509213544 26 283 4.8 9.7 0.00 1.37 0.03 46 1009.7
20260509213044 26 284 3.2 17.7 0.00 1.37 0.03 48 1009.5
20260509212544 26 300 6.4 17.7 0.00 1.37 0.03 41 1009.6
20260509212046 26 310 6.4 16.1 0.00 1.37 0.03 45 1009.7
20260509211546 26 296 3.2 16.1 0.00 1.37 0.03 48 1009.9
20260509211048 26 298 4.8 19.3 0.00 1.37 0.03 42 1009.9
20260509210643 26 289 6.4 19.3 0.00 1.37 0.03 43 1009.9
20260509210105 26 296 4.8 19.3 0.00 1.37 0.03 39 1010.0
20260509205600 26 297 4.8 22.5 0.00 1.37 0.03 44 1010.1
20260509205100 26 317 8.0 22.5 0.00 1.37 0.03 44 1010.2
20260509204602 26 306 11.3 19.3 0.00 1.37 0.03 41 1010.3
20260509204059 26 319 4.8 20.9 0.00 1.37 0.03 42 1010.3
20260509203558 26 336 6.4 20.9 0.00 1.37 0.03 49 1010.3
20260509203100 26 266 3.2 20.9 0.00 1.37 0.03 47 1010.3
20260509202558 26 290 4.8 19.3 0.00 1.37 0.03 44 1010.3
20260509202058 26 329 9.7 19.3 0.00 1.37 0.03 43 1010.5
20260509201558 26 306 4.8 16.1 0.00 1.37 0.03 47 1010.5
20260509201056 26 259 4.8 16.1 0.00 1.37 0.03 52 1010.5
20260509200502 26 304 4.8 20.9 0.00 1.37 0.03 43 1010.6
20260509200001 26 294 9.7 20.9 0.00 1.37 0.03 44 1010.6
20260509195601 26 293 6.4 20.9 0.00 1.37 0.03 46 1010.7
20260509195103 26 309 3.2 12.9 0.00 1.37 0.03 48 1010.7
20260509194559 26 304 4.8 17.7 0.00 1.37 0.03 47 1010.7
20260509194059 26 315 4.8 17.7 0.00 1.37 0.03 48 1010.7
20260509193559 25 299 3.2 17.7 0.00 1.37 0.03 45 1010.7
20260509193125 25 307 11.3 20.9 0.00 1.37 0.03 44 1010.7
20260509192557 26 272 8.0 20.9 0.00 1.37 0.03 50 1010.7
20260509192101 26 333 8.0 17.7 0.00 1.37 0.03 48 1010.6
20260509191613 25 279 3.2 19.3 0.00 1.37 0.03 49 1010.6
20260509191057 25 307 8.0 19.3 0.00 1.37 0.03 52 1010.5
20260509190655 25 310 6.4 19.3 0.00 1.37 0.03 52 1010.6
20260509190111 25 212 6.4 17.7 0.00 1.37 0.03 52 1010.5
20260509185556 25 300 9.7 17.7 0.00 1.37 0.03 48 1010.7
20260509185056 25 263 6.4 16.1 0.00 1.37 0.03 54 1010.7
20260509184554 25 295 6.4 17.7 0.00 1.37 0.03 53 1010.7
20260509184054 25 263 6.4 19.3 0.00 1.37 0.03 54 1010.7
20260509183554 25 281 8.0 19.3 0.00 1.37 0.03 52 1010.7
20260509183055 25 262 8.0 20.9 0.00 1.37 0.03 51 1010.7
20260509182552 25 283 4.8 20.9 0.00 1.37 0.03 54 1010.7
20260509182052 25 360 6.4 17.7 0.00 1.37 0.03 56 1010.9
20260509181551 25 318 6.4 17.7 0.00 1.37 0.03 57 1010.9
20260509181051 24 338 8.0 17.7 0.00 1.37 0.03 55 1010.9
20260509180651 24 298 6.4 17.7 0.00 1.37 0.03 58 1010.9
20260509180054 24 295 8.0 25.7 0.00 1.37 0.03 56 1011.1
20260509175554 24 49 9.7 25.7 0.00 1.37 0.03 56 1011.1
20260509175053 24 294 8.0 17.7 0.00 1.37 0.03 56 1011.1
20260509174552 24 285 6.4 22.5 0.00 1.37 0.03 55 1011.1
20260509174051 24 307 11.3 22.5 0.00 1.37 0.03 55 1011.3
20260509173549 23 275 9.7 19.3 0.00 1.37 0.03 54 1011.2
20260509173057 23 273 8.0 22.5 0.00 1.37 0.03 56 1011.2
20260509172550 23 280 8.0 22.5 0.00 1.37 0.03 58 1011.3
20260509172047 23 315 6.4 16.1 0.00 1.37 0.03 58 1011.3
20260509171559 23 317 3.2 20.9 0.00 1.37 0.03 63 1011.3
20260509171045 23 322 6.4 27.4 0.00 1.37 0.03 58 1011.4
20260509170645 23 288 11.3 27.4 0.00 1.37 0.03 58 1011.5
20260509170055 23 311 8.0 20.9 0.00 1.37 0.03 60 1011.4
20260509165554 23 337 6.4 14.5 0.00 1.37 0.03 61 1011.4
20260509165052 23 290 4.8 12.9 0.00 1.37 0.03 67 1011.5
20260509164553 22 335 3.2 16.1 0.00 1.37 0.03 64 1011.5
20260509164053 22 292 6.4 16.1 0.00 1.37 0.03 63 1011.7
20260509163551 22 283 6.4 16.1 0.00 1.37 0.03 66 1011.7
20260509163055 22 301 4.8 17.7 0.00 1.37 0.03 68 1011.7
20260509162551 22 324 6.4 14.5 0.00 1.37 0.03 64 1011.6
20260509162046 22 271 1.6 17.7 0.00 1.37 0.03 69 1011.7
20260509161544 22 313 3.2 17.7 0.00 1.37 0.03 66 1011.8
20260509161042 21 263 4.8 14.5 0.00 1.37 0.03 67 1011.8
20260509160514 21 5 4.8 14.5 0.00 1.37 0.03 65 1011.8
20260509160017 21 296 4.8 14.5 0.00 1.37 0.03 68 1011.8
20260509155512 21 315 1.6 14.5 0.00 1.37 0.03 70 1011.7
20260509155016 21 296 8.0 14.5 0.00 1.37 0.03 68 1011.6
20260509154507 21 249 6.4 14.5 0.00 1.37 0.03 71 1011.6
20260509154006 21 265 4.8 14.5 0.00 1.37 0.03 70 1011.7
20260509153504 20 286 4.8 12.9 0.00 1.37 0.03 76 1011.6
20260509153103 20 321 3.2 14.5 0.00 1.37 0.03 73 1011.7
20260509152501 20 267 8.0 16.1 0.00 1.37 0.03 73 1011.6
20260509152101 20 273 3.2 16.1 0.00 1.37 0.03 75 1011.7
20260509151607 20 265 6.4 17.7 0.00 1.37 0.03 75 1011.7
20260509151100 20 34 8.0 17.7 0.00 1.37 0.03 75 1011.6
20260509150511 19 9 6.4 16.1 0.00 1.37 0.03 77 1011.5
20260509150010 19 299 4.8 9.7 0.03 1.37 0.03 80 1011.5
20260509145509 19 240 3.2 12.9 0.03 1.37 0.03 81 1011.5
20260509145008 18 298 6.4 12.9 0.03 1.37 0.03 82 1011.5
20260509144506 18 309 3.2 14.5 0.03 1.37 0.03 83 1011.5
20260509144004 18 277 8.0 14.5 0.03 1.37 0.03 83 1011.4
20260509143501 18 249 1.6 12.9 0.03 1.37 0.03 86 1011.6
20260509143100 17 295 4.8 12.9 0.03 1.37 0.03 88 1011.6
20260509142558 17 291 3.2 8.0 0.03 1.37 0.03 91 1011.4
20260509142057 17 236 1.6 12.9 0.03 1.37 0.03 95 1011.5
20260509141556 16 295 4.8 12.9 0.03 1.37 0.03 96 1011.5
20260509141054 16 326 1.6 6.4 0.03 1.37 0.03 97 1011.3
20260509140501 15 335 3.2 6.4 0.03 1.37 0.03 98 1011.2
20260509140107 15 257 1.6 12.9 0.00 1.35 0.00 98 1011.3
20260509135601 14 339 4.8 12.9 0.00 1.35 0.00 98 1011.3
20260509135057 14 126 0.0 4.8 0.00 1.35 0.00 98 1011.2
20260509134607 13 157 0.0 3.2 0.00 1.35 0.00 98 1011.2
20260509134053 13 157 0.0 3.2 0.00 1.35 0.00 98 1011.1
20260509133552 13 88 0.0 3.2 0.00 1.35 0.00 98 1011.1
20260509133052 12 5 0.0 3.2 0.00 1.35 0.00 98 1011.1
20260509132551 12 355 0.0 3.2 0.00 1.35 0.00 98 1011.1
20260509132052 11 360 0.0 1.6 0.00 1.35 0.00 98 1011.0
20260509131605 11 360 0.0 3.2 0.00 1.35 0.00 98 1010.9
20260509131048 11 5 0.0 3.2 0.00 1.35 0.00 98 1011.0